SL-23 DEB (43092 NORAD) Tracking and Keplerian Element Data

This shows tracking and keplerian element data for the satellite.

Feedback or suggestion? Click here.




ElementValue
Catalog43092
NameSL-23 DEB
Epoch Orbit457
Epoch Day25.04242817
Epoch Year2018
RAAN243.9683
Inclination51.3323
Eccentricity0.020633
Argument of Perigee186.6466
Mean Anonmoly173.201
Mean Motion15.90356593
Decay Rate0.02531189
L11 43092U 17086F 18025.04242817 .02531189 10876-4 92332-3 0 9991
L22 43092 51.3323 243.9683 0206330 186.6466 173.2010 15.90356593 4579

Live tracking and technical data element details for SL-23 DEB (NORAD 43092). SL-23 DEB can be tracked NOW for your location showing map with azimuth and elevation plus other details from your city location.

Track the satellite on the map from your city or location and see movement details for azimuth, elevation, latitude, longitude, range, height, and movement on the map or in text.







IsCatalogInMostPopularTable: catalog: 43092, numindb: 114
Update: records affected: 1



GetName: 43092 SL-23 DEB

Hit Count: updated at: Fri, 16 Nov 2018 11:58:42 GMT